Home > Weather > Schmallenberg > Past weeks

Flag for Germany Past Weather in Schmallenberg, North Rhine-Westphalia, Germany — Yesterday and Last 2 Weeks

Now
50 °F

Overcast.


Feels Like: 49 °F
Forecast: 45 / 67 °F
Wind: 3 mph from North

Location: Hessen

Current Time: May 25, 2016 at 1:16:04 PM

Latest Report: May 25, 2016 at 12:20 PM


Visibility: 6 mi

Pressure: 29.98 "Hg

Humidity: 88%

Dew Point: 46 °F

Location of SchmallenbergLocation

Past Weather in Schmallenberg — Graph

°F

Schmallenberg Temperature Yesterday

Maximum temperature yesterday: 46 °F (at 2:50 PM)
Minimum temperature yesterday: 45 °F (at 7:50 AM)
Average temperature yesterday: 45 °F

High & Low Weather Summary for the Past Weeks

 TemperatureHumidityPressure
High70 °F (May 22, 4:20 PM)100% (May 11, 7:50 AM)30.09 "Hg (May 11, 7:50 AM)
Low36 °F (May 15, 7:20 AM)40% (May 10, 4:20 PM)29.53 "Hg (May 12, 10:50 AM)
Average53 °F73%29.88 "Hg
* Reported May 10 11:20 AM — May 25 11:50 AM, Schmallenberg, Weather by CustomWeather, © 2016

Note: Actual official high and low records may vary slightly from our data, if they occured in-between our weather recording intervals... More about our weather records

Advertising

Schmallenberg Weather History for the Previous 24 Hours

Scroll right to see more
 ConditionsComfort  
Time TempWeatherWind HumidityBarometerVisibility
11:50 AM
Wed, May 25
50 °FPartly sunny.3 mph88%29.98 "Hg6 mi
11:20 AM50 °FPartly sunny.5 mph82%29.98 "Hg5 mi
10:50 AM50 °FPartly sunny.3 mph88%29.98 "HgN/A
10:20 AM46 °FBroken clouds.5 mph93%29.98 "Hg4 mi
9:50 AM48 °FBroken clouds.5 mph87%29.98 "Hg4 mi
9:20 AM46 °FBroken clouds.3 mph93%29.98 "Hg4 mi
8:50 AM46 °FPartly sunny.3 mph93%29.98 "Hg4 mi
8:20 AM46 °FFog.5 mph93%29.98 "Hg3 mi
7:50 AM45 °FFog.3 mph100%29.98 "Hg2 mi
8:50 PM
Tue, May 24
45 °FFog.8 mph100%29.98 "Hg3 mi
8:20 PM46 °FFog.7 mph100%29.98 "Hg3 mi
7:50 PM46 °FLight rain. Broken clouds.8 mph100%29.98 "Hg2 mi
7:20 PM46 °FFog.9 mph100%29.98 "Hg2 mi
6:50 PM46 °FFog.10 mph100%29.98 "Hg3 mi
6:20 PM46 °FFog.9 mph100%29.95 "Hg2 mi
5:50 PM46 °FFog.14 mph100%29.98 "Hg2 mi
5:20 PM46 °FLight rain. Broken clouds.12 mph100%29.98 "Hg2 mi
4:50 PM45 °FLight rain. Broken clouds.12 mph100%29.98 "Hg2 mi
4:20 PM46 °FLight rain. Broken clouds.12 mph100%29.98 "Hg2 mi
3:50 PM45 °FLight rain. Broken clouds.14 mph100%29.98 "Hg2 mi
3:20 PM45 °FLight rain. More clouds than sun.13 mph100%29.98 "Hg1 mi
2:50 PM46 °FLight rain. Fog.13 mph100%29.98 "Hg2 mi
2:20 PM45 °FDrizzle. Fog.12 mph100%29.98 "Hg2 mi
1:50 PM45 °FDrizzle. Fog.13 mph100%29.98 "Hg2 mi
1:20 PM45 °FDrizzle. Fog.13 mph100%29.98 "Hg1 mi
Weather by CustomWeather, © 2016

See weather overviewHow to use our weather pages